DW1083 Weather Reports


time (UTC)temp
C
wind
direction
speed
KPH
gust
KPH
rain 1hr
cm
rain 24hr
cm
rain mn
cm
humidity
%
barometer
mb
20260502193312 10 292 0.0 1.6 0.00 0.00 0.00 60 1021.3
20260502190312 11 0 0.0 0.0 0.00 0.00 0.00 60 1020.9
20260502183312 11 315 1.6 6.4 0.00 0.00 0.00 58 1020.4
20260502180312 11 0 0.0 0.0 0.00 0.00 0.00 57 1019.9
20260502170312 12 315 4.8 8.0 0.00 0.00 0.00 58 1019.2
20260502163312 13 315 3.2 6.4 0.00 0.00 0.00 54 1019.8
20260502160312 15 292 3.2 6.4 0.00 0.00 0.00 50 1020.5
20260502150311 18 270 1.6 4.8 0.00 0.00 0.00 39 1021.8
20260502130312 18 292 3.2 12.9 0.00 0.00 0.00 44 1023.2
20260502123311 18 180 3.2 9.7 0.00 0.00 0.00 43 1023.6
20260502120311 18 180 3.2 8.0 0.00 0.00 0.00 44 1023.9
20260502113311 17 157 6.4 12.9 0.00 0.00 0.00 51 1024.1
20260502110311 17 157 6.4 14.5 0.00 0.00 0.00 53 1024.4
20260502103310 16 180 4.8 11.3 0.00 0.00 0.00 56 1024.9
20260502100310 15 157 6.4 11.3 0.00 0.00 0.00 60 1025.2
20260502090310 14 180 4.8 9.7 0.00 0.00 0.00 59 1025.5
20260502070310 10 0 0.0 0.0 0.00 0.00 0.00 69 1026.0
20260502063310 10 0 0.0 0.0 0.00 0.00 0.00 73 1025.8
20260502060309 7 0 0.0 0.0 0.00 0.00 0.00 79 1025.7
20260502050309 3 0 0.0 0.0 0.00 0.00 0.00 84 1025.1
20260502040309 3 0 0.0 0.0 0.00 0.00 0.00 82 1025.7
20260502030309 3 0 0.0 0.0 0.00 0.00 0.00 83 1026.6
20260502023309 3 0 0.0 0.0 0.00 0.00 0.00 83 1026.7
20260502020309 3 0 0.0 0.0 0.00 0.00 0.00 82 1026.7
20260502013314 3 0 0.0 0.0 0.00 0.00 0.00 82 1027.0
20260502003313 4 0 0.0 0.0 0.00 0.00 0.00 80 1027.4
20260501233313 5 0 0.0 0.0 0.00 0.00 0.00 79 1027.6
20260501223313 5 0 0.0 0.0 0.00 0.00 0.00 77 1027.3
20260501220313 5 315 0.0 3.2 0.00 0.00 0.00 76 1027.2
20260501213312 5 315 1.6 4.8 0.00 0.00 0.00 75 1027.0
20260501210312 6 315 3.2 6.4 0.00 0.00 0.00 74 1027.0
20260501203312 6 360 1.6 4.8 0.00 0.00 0.00 72 1026.9
20260501200312 6 0 0.0 0.0 0.00 0.00 0.00 71 1026.4